Time,TemperatureF,DewpointF,PressureIn,WindDirection,WindDirectionDegrees,WindSpeedMPH,WindSpeedGustMPH,Humidity,HourlyPrecipIn,Conditions,Clouds,dailyrainin,SoftwareType,DateUTC
2013-02-12 00:00:00,54.7,53.9,30.05,ENE,60,5.0,5.0,97,0.00,,,2.17,Wunderground v.1.15,2013-02-12 06:00:00,
2013-02-12 00:05:00,54.8,54.0,30.05,East,79,4.0,5.0,97,0.00,,,0.00,Wunderground v.1.15,2013-02-12 06:05:00,
2013-02-12 00:20:00,54.8,54.0,30.03,ENE,77,5.0,7.0,97,0.00,,,0.00,Wunderground v.1.15,2013-02-12 06:20:00,
2013-02-12 00:25:00,54.8,54.0,30.03,NE,51,5.0,7.0,97,0.00,,,0.00,Wunderground v.1.15,2013-02-12 06:25:00,
2013-02-12 00:30:00,54.7,53.9,30.03,ENE,57,5.0,5.0,97,0.00,,,0.00,Wunderground v.1.15,2013-02-12 06:30:00,
2013-02-12 00:35:00,54.7,53.9,30.03,East,88,5.0,5.0,97,0.00,,,0.00,Wunderground v.1.15,2013-02-12 06:35:00,
2013-02-12 00:40:00,54.7,53.9,30.02,NE,49,6.0,6.0,97,0.00,,,0.00,Wunderground v.1.15,2013-02-12 06:40:00,
2013-02-12 00:50:00,54.7,53.9,30.03,NNE,22,5.0,5.0,97,0.00,,,0.00,Wunderground v.1.15,2013-02-12 06:50:00,
2013-02-12 00:55:00,54.7,53.9,30.03,ENE,58,6.0,8.0,97,0.00,,,0.00,Wunderground v.1.15,2013-02-12 06:55:00,
2013-02-12 01:00:00,54.8,54.0,30.03,East,93,5.0,5.0,97,0.00,,,0.00,Wunderground v.1.15,2013-02-12 07:00:00,
2013-02-12 01:05:00,54.8,54.0,30.03,ENE,68,5.0,6.0,97,0.00,,,0.00,Wunderground v.1.15,2013-02-12 07:05:00,
2013-02-12 01:10:00,54.8,54.0,30.03,ENE,76,4.0,4.0,97,0.00,,,0.00,Wunderground v.1.15,2013-02-12 07:10:00,
2013-02-12 01:15:00,54.8,54.0,30.03,NE,47,4.0,6.0,97,0.00,,,0.00,Wunderground v.1.15,2013-02-12 07:15:00,
2013-02-12 01:25:00,54.7,53.9,30.02,NE,34,5.0,11.0,97,0.00,,,0.00,Wunderground v.1.15,2013-02-12 07:25:00,
2013-02-12 01:30:00,54.7,53.9,30.02,NNE,33,6.0,11.0,97,0.00,,,0.00,Wunderground v.1.15,2013-02-12 07:30:00,
2013-02-12 01:35:00,54.7,53.9,30.02,ENE,66,7.0,11.0,97,0.00,,,0.00,Wunderground v.1.15,2013-02-12 07:35:00,
2013-02-12 01:40:00,54.7,53.9,30.01,East,96,5.0,5.0,97,0.00,,,0.00,Wunderground v.1.15,2013-02-12 07:40:00,
2013-02-12 01:45:00,54.7,53.9,30.00,ENE,64,5.0,6.0,97,0.00,,,0.00,Wunderground v.1.15,2013-02-12 07:45:00,
2013-02-12 01:50:00,54.7,53.9,30.00,East,82,6.0,11.0,97,0.00,,,0.00,Wunderground v.1.15,2013-02-12 07:50:00,
2013-02-12 01:55:00,54.7,53.9,30.00,ENE,63,6.0,11.0,97,0.00,,,0.00,Wunderground v.1.15,2013-02-12 07:55:00,
2013-02-12 02:00:00,54.7,53.9,30.00,ESE,107,6.0,11.0,97,0.00,,,0.00,Wunderground v.1.15,2013-02-12 08:00:00,
2013-02-12 02:05:00,54.8,54.0,30.00,NE,43,7.0,11.0,97,0.00,,,0.00,Wunderground v.1.15,2013-02-12 08:05:00,
2013-02-12 02:10:00,54.8,54.0,30.00,NE,45,7.0,7.0,97,0.00,,,0.00,Wunderground v.1.15,2013-02-12 08:10:00,
2013-02-12 02:15:00,54.8,54.0,29.99,ENE,58,6.0,11.0,97,0.00,,,0.00,Wunderground v.1.15,2013-02-12 08:15:00,
2013-02-12 02:25:00,54.9,54.1,29.99,ENE,70,5.0,11.0,97,0.00,,,0.00,Wunderground v.1.15,2013-02-12 08:25:00,
2013-02-12 02:30:00,54.9,54.1,29.98,NE,53,5.0,11.0,97,0.00,,,0.00,Wunderground v.1.15,2013-02-12 08:30:00,
2013-02-12 02:35:00,54.9,54.1,29.98,NE,55,6.0,11.0,97,0.00,,,0.00,Wunderground v.1.15,2013-02-12 08:35:00,
2013-02-12 02:40:00,55.0,54.2,29.99,NE,46,6.0,6.0,97,0.00,,,0.00,Wunderground v.1.15,2013-02-12 08:40:00,
2013-02-12 02:45:00,55.0,54.2,29.98,East,98,6.0,11.0,97,0.00,,,0.00,Wunderground v.1.15,2013-02-12 08:45:00,
2013-02-12 02:50:00,55.0,54.2,29.98,ENE,72,6.0,11.0,97,0.00,,,0.00,Wunderground v.1.15,2013-02-12 08:50:00,
2013-02-12 03:00:00,55.0,54.2,29.98,ENE,70,5.0,11.0,97,0.00,,,0.00,Wunderground v.1.15,2013-02-12 09:00:00,
2013-02-12 03:05:00,55.0,54.2,29.98,ENE,65,5.0,11.0,97,0.00,,,0.01,Wunderground v.1.15,2013-02-12 09:05:00,
2013-02-12 03:10:00,55.0,54.2,29.98,ENE,70,5.0,11.0,97,0.20,,,0.02,Wunderground v.1.15,2013-02-12 09:10:00,
2013-02-12 03:15:00,55.0,54.2,29.98,ESE,105,5.0,11.0,97,0.08,,,0.02,Wunderground v.1.15,2013-02-12 09:15:00,
2013-02-12 03:20:00,55.0,54.2,29.98,East,82,5.0,11.0,97,0.05,,,0.02,Wunderground v.1.15,2013-02-12 09:20:00,
2013-02-12 03:30:00,55.0,54.4,29.97,NE,56,5.0,11.0,98,0.00,,,0.02,Wunderground v.1.15,2013-02-12 09:30:00,
2013-02-12 03:35:00,55.0,54.4,29.97,ENE,63,5.0,11.0,98,0.00,,,0.02,Wunderground v.1.15,2013-02-12 09:35:00,
2013-02-12 03:40:00,54.9,54.3,29.96,East,91,5.0,5.0,98,0.00,,,0.02,Wunderground v.1.15,2013-02-12 09:40:00,
2013-02-12 03:45:00,54.9,54.3,29.96,ENE,76,5.0,11.0,98,0.00,,,0.02,Wunderground v.1.15,2013-02-12 09:45:00,
2013-02-12 03:50:00,54.9,54.3,29.96,SE,133,5.0,11.0,98,0.00,,,0.02,Wunderground v.1.15,2013-02-12 09:50:00,
2013-02-12 03:55:00,54.8,54.2,29.96,ENE,70,5.0,11.0,98,0.00,,,0.02,Wunderground v.1.15,2013-02-12 09:55:00,
2013-02-12 04:05:00,54.8,54.2,29.95,East,82,5.0,11.0,98,0.00,,,0.03,Wunderground v.1.15,2013-02-12 10:05:00,
2013-02-12 04:10:00,54.8,54.2,29.95,East,91,6.0,6.0,98,0.14,,,0.04,Wunderground v.1.15,2013-02-12 10:10:00,
2013-02-12 04:15:00,54.8,54.2,29.94,ENE,74,6.0,7.0,98,0.09,,,0.04,Wunderground v.1.15,2013-02-12 10:15:00,
2013-02-12 04:20:00,54.7,54.1,29.94,SE,129,6.0,6.0,98,0.06,,,0.05,Wunderground v.1.15,2013-02-12 10:20:00,
2013-02-12 04:25:00,54.8,54.2,29.95,ESE,110,6.0,11.0,98,0.06,,,0.05,Wunderground v.1.15,2013-02-12 10:25:00,
2013-02-12 04:35:00,54.8,54.2,29.95,East,82,5.0,11.0,98,0.00,,,0.05,Wunderground v.1.15,2013-02-12 10:35:00,
2013-02-12 04:40:00,54.8,54.2,29.94,East,101,6.0,11.0,98,0.00,,,0.05,Wunderground v.1.15,2013-02-12 10:40:00,
2013-02-12 04:45:00,54.8,54.2,29.94,East,91,6.0,11.0,98,0.00,,,0.05,Wunderground v.1.15,2013-02-12 10:45:00,
2013-02-12 04:50:00,54.9,54.3,29.94,East,89,6.0,11.0,98,0.00,,,0.05,Wunderground v.1.15,2013-02-12 10:50:00,
2013-02-12 04:55:00,54.9,54.3,29.94,SE,128,7.0,11.0,98,0.00,,,0.05,Wunderground v.1.15,2013-02-12 10:55:00,
2013-02-12 05:00:00,54.9,54.3,29.94,ENE,72,7.0,7.0,98,0.00,,,0.05,Wunderground v.1.15,2013-02-12 11:00:00,
2013-02-12 05:10:00,54.9,54.3,29.94,ESE,108,7.0,7.0,98,0.00,,,0.05,Wunderground v.1.15,2013-02-12 11:10:00,
2013-02-12 05:15:00,54.9,54.3,29.93,SSE,160,6.0,11.0,98,0.00,,,0.05,Wunderground v.1.15,2013-02-12 11:15:00,
2013-02-12 05:20:00,54.9,54.3,29.93,SE,129,6.0,11.0,98,0.00,,,0.06,Wunderground v.1.15,2013-02-12 11:20:00,
2013-02-12 05:25:00,55.0,54.4,29.93,ESE,106,7.0,11.0,98,0.00,,,0.06,Wunderground v.1.15,2013-02-12 11:25:00,
2013-02-12 05:30:00,55.0,54.4,29.92,ESE,105,7.0,11.0,98,0.00,,,0.06,Wunderground v.1.15,2013-02-12 11:30:00,
2013-02-12 05:35:00,55.0,54.4,29.92,East,91,8.0,11.0,98,0.00,,,0.06,Wunderground v.1.15,2013-02-12 11:35:00,
2013-02-12 05:40:00,55.0,54.4,29.91,SE,128,9.0,9.0,98,0.00,,,0.06,Wunderground v.1.15,2013-02-12 11:40:00,
2013-02-12 05:45:00,55.0,54.4,29.92,East,94,8.0,11.0,98,0.00,,,0.06,Wunderground v.1.15,2013-02-12 11:45:00,
2013-02-12 05:55:00,55.0,54.4,29.91,ESE,108,8.0,11.0,98,0.00,,,0.06,Wunderground v.1.15,2013-02-12 11:55:00,
2013-02-12 06:00:00,55.1,54.5,29.91,ESE,112,8.0,8.0,98,0.00,,,0.06,Wunderground v.1.15,2013-02-12 12:00:00,
2013-02-12 06:05:00,55.1,54.5,29.91,SE,132,7.0,11.0,98,0.00,,,0.06,Wunderground v.1.15,2013-02-12 12:05:00,
2013-02-12 06:10:00,55.1,54.5,29.91,East,85,7.0,7.0,98,0.00,,,0.06,Wunderground v.1.15,2013-02-12 12:10:00,
2013-02-12 06:15:00,55.2,54.6,29.91,SE,140,6.0,11.0,98,0.00,,,0.06,Wunderground v.1.15,2013-02-12 12:15:00,
2013-02-12 06:20:00,55.2,54.9,29.91,ESE,113,6.0,6.0,99,0.00,,,0.06,Wunderground v.1.15,2013-02-12 12:20:00,
2013-02-12 06:25:00,55.2,54.9,29.90,East,91,6.0,9.0,99,0.00,,,0.06,Wunderground v.1.15,2013-02-12 12:25:00,
2013-02-12 06:30:00,55.2,54.9,29.90,SE,136,7.0,7.0,99,0.00,,,0.06,Wunderground v.1.15,2013-02-12 12:30:00,
2013-02-12 06:35:00,55.3,55.0,29.90,ESE,107,7.0,11.0,99,0.00,,,0.06,Wunderground v.1.15,2013-02-12 12:35:00,
2013-02-12 06:45:00,55.4,55.1,29.90,ESE,117,7.0,11.0,99,0.00,,,0.06,Wunderground v.1.15,2013-02-12 12:45:00,
2013-02-12 06:50:00,55.4,55.1,29.90,East,100,6.0,11.0,99,0.00,,,0.06,Wunderground v.1.15,2013-02-12 12:50:00,
2013-02-12 06:55:00,55.5,55.2,29.89,SSE,150,7.0,11.0,99,0.00,,,0.06,Wunderground v.1.15,2013-02-12 12:55:00,
2013-02-12 07:00:00,55.5,55.2,29.89,SE,141,7.0,11.0,99,0.00,,,0.06,Wunderground v.1.15,2013-02-12 13:00:00,
2013-02-12 07:05:00,55.6,55.3,29.90,ESE,120,7.0,11.0,99,0.00,,,0.06,Wunderground v.1.15,2013-02-12 13:05:00,
2013-02-12 07:15:00,55.6,55.3,29.90,East,92,6.0,11.0,99,0.00,,,0.06,Wunderground v.1.15,2013-02-12 13:15:00,
2013-02-12 07:20:00,55.7,55.4,29.89,SE,146,7.0,11.0,99,0.00,,,0.06,Wunderground v.1.15,2013-02-12 13:20:00,
2013-02-12 07:25:00,55.7,55.4,29.89,ESE,120,7.0,11.0,99,0.00,,,0.06,Wunderground v.1.15,2013-02-12 13:25:00,
2013-02-12 07:30:00,55.8,55.5,29.90,SE,132,7.0,7.0,99,0.00,,,0.06,Wunderground v.1.15,2013-02-12 13:30:00,
2013-02-12 07:35:00,55.8,55.5,29.90,SE,124,6.0,8.0,99,0.00,,,0.06,Wunderground v.1.15,2013-02-12 13:35:00,
2013-02-12 07:40:00,55.9,55.6,29.89,ESE,110,6.0,6.0,99,0.00,,,0.06,Wunderground v.1.15,2013-02-12 13:40:00,
2013-02-12 07:50:00,55.9,55.6,29.89,East,89,5.0,11.0,99,0.00,,,0.06,Wunderground v.1.15,2013-02-12 13:50:00,
2013-02-12 07:55:00,55.9,55.6,29.89,ESE,113,5.0,11.0,99,0.00,,,0.06,Wunderground v.1.15,2013-02-12 13:55:00,
2013-02-12 08:00:00,56.0,55.7,29.90,East,96,4.0,11.0,99,0.00,,,0.06,Wunderground v.1.15,2013-02-12 14:00:00,
2013-02-12 08:05:00,56.1,55.8,29.89,East,85,4.0,11.0,99,0.00,,,0.06,Wunderground v.1.15,2013-02-12 14:05:00,
2013-02-12 08:10:00,56.1,55.8,29.89,ESE,106,5.0,11.0,99,0.00,,,0.06,Wunderground v.1.15,2013-02-12 14:10:00,
2013-02-12 08:20:00,56.2,55.9,29.88,East,93,6.0,6.0,99,0.00,,,0.06,Wunderground v.1.15,2013-02-12 14:20:00,
2013-02-12 08:25:00,56.3,56.3,29.88,East,98,6.0,11.0,100,0.00,,,0.06,Wunderground v.1.15,2013-02-12 14:25:00,
2013-02-12 08:30:00,56.4,56.4,29.89,SSE,167,5.0,11.0,100,0.00,,,0.06,Wunderground v.1.15,2013-02-12 14:30:00,
2013-02-12 08:35:00,56.5,56.5,29.88,East,85,5.0,11.0,100,0.00,,,0.06,Wunderground v.1.15,2013-02-12 14:35:00,
2013-02-12 08:40:00,56.5,56.5,29.89,East,93,5.0,5.0,100,0.00,,,0.06,Wunderground v.1.15,2013-02-12 14:40:00,
2013-02-12 08:45:00,56.6,56.6,29.89,East,84,4.0,11.0,100,0.00,,,0.06,Wunderground v.1.15,2013-02-12 14:45:00,
2013-02-12 08:55:00,56.7,56.7,29.88,ESE,108,3.0,4.0,100,0.00,,,0.06,Wunderground v.1.15,2013-02-12 14:55:00,
2013-02-12 09:00:00,56.7,56.7,29.88,ENE,63,4.0,4.0,100,0.00,,,0.06,Wunderground v.1.15,2013-02-12 15:00:00,
2013-02-12 09:05:00,56.8,56.8,29.88,ENE,74,4.0,11.0,100,0.00,,,0.06,Wunderground v.1.15,2013-02-12 15:05:00,
2013-02-12 09:10:00,56.8,56.8,29.88,East,96,4.0,11.0,100,0.00,,,0.06,Wunderground v.1.15,2013-02-12 15:10:00,
2013-02-12 09:15:00,56.9,56.9,29.88,East,95,5.0,11.0,100,0.00,,,0.06,Wunderground v.1.15,2013-02-12 15:15:00,
2013-02-12 09:25:00,57.1,57.1,29.88,ENE,63,5.0,11.0,100,0.00,,,0.06,Wunderground v.1.15,2013-02-12 15:25:00,
2013-02-12 09:30:00,57.1,57.1,29.87,East,94,5.0,11.0,100,0.00,,,0.06,Wunderground v.1.15,2013-02-12 15:30:00,
2013-02-12 09:35:00,57.1,57.1,29.87,ESE,103,5.0,11.0,100,0.00,,,0.06,Wunderground v.1.15,2013-02-12 15:35:00,
2013-02-12 09:40:00,57.1,57.1,29.88,East,85,5.0,5.0,100,0.00,,,0.06,Wunderground v.1.15,2013-02-12 15:40:00,
2013-02-12 09:45:00,57.1,57.1,29.87,East,91,4.0,11.0,100,0.00,,,0.06,Wunderground v.1.15,2013-02-12 15:45:00,
2013-02-12 09:50:00,57.2,57.2,29.87,East,89,4.0,11.0,100,0.00,,,0.06,Wunderground v.1.15,2013-02-12 15:50:00,
2013-02-12 09:55:00,57.4,57.4,29.87,ESE,110,4.0,11.0,100,0.00,,,0.06,Wunderground v.1.15,2013-02-12 15:55:00,
2013-02-12 10:00:00,57.4,57.4,29.87,East,97,4.0,11.0,100,0.00,,,0.06,Wunderground v.1.15,2013-02-12 16:00:00,
2013-02-12 10:05:00,57.5,57.5,29.87,SE,125,4.0,11.0,100,0.00,,,0.06,Wunderground v.1.15,2013-02-12 16:05:00,
2013-02-12 10:10:00,57.6,57.6,29.88,SE,138,4.0,11.0,100,0.00,,,0.06,Wunderground v.1.15,2013-02-12 16:10:00,
2013-02-12 10:15:00,57.7,57.7,29.88,East,94,3.0,11.0,100,0.00,,,0.06,Wunderground v.1.15,2013-02-12 16:15:00,
2013-02-12 10:25:00,58.0,58.0,29.88,ENE,76,3.0,11.0,100,0.00,,,0.06,Wunderground v.1.15,2013-02-12 16:25:00,
2013-02-12 10:30:00,58.2,58.2,29.87,ESE,117,3.0,11.0,100,0.00,,,0.06,Wunderground v.1.15,2013-02-12 16:30:00,
2013-02-12 10:35:00,58.3,58.3,29.88,East,101,4.0,11.0,100,0.00,,,0.06,Wunderground v.1.15,2013-02-12 16:35:00,
2013-02-12 10:40:00,58.4,58.4,29.87,ESE,105,4.0,11.0,100,0.00,,,0.06,Wunderground v.1.15,2013-02-12 16:40:00,
2013-02-12 10:45:00,58.6,58.6,29.87,ESE,116,4.0,11.0,100,0.00,,,0.06,Wunderground v.1.15,2013-02-12 16:45:00,
2013-02-12 10:50:00,58.6,58.6,29.86,ESE,110,4.0,11.0,100,0.00,,,0.06,Wunderground v.1.15,2013-02-12 16:50:00,
2013-02-12 11:00:00,58.9,58.9,29.86,ESE,107,4.0,11.0,100,0.00,,,0.06,Wunderground v.1.15,2013-02-12 17:00:00,
2013-02-12 11:05:00,59.1,59.1,29.85,East,101,4.0,11.0,100,0.00,,,0.06,Wunderground v.1.15,2013-02-12 17:05:00,
2013-02-12 11:10:00,59.2,59.2,29.85,East,94,4.0,4.0,100,0.00,,,0.06,Wunderground v.1.15,2013-02-12 17:10:00,
2013-02-12 11:15:00,59.4,59.4,29.85,ESE,120,3.0,11.0,100,0.00,,,0.06,Wunderground v.1.15,2013-02-12 17:15:00,
2013-02-12 11:20:00,59.5,59.5,29.85,ESE,113,4.0,11.0,100,0.00,,,0.06,Wunderground v.1.15,2013-02-12 17:20:00,
2013-02-12 11:25:00,59.6,59.6,29.85,East,96,4.0,11.0,100,0.00,,,0.06,Wunderground v.1.15,2013-02-12 17:25:00,
2013-02-12 11:35:00,59.7,59.7,29.85,SE,129,3.0,11.0,100,0.00,,,0.06,Wunderground v.1.15,2013-02-12 17:35:00,
2013-02-12 11:40:00,59.9,59.9,29.85,East,98,3.0,3.0,100,0.00,,,0.06,Wunderground v.1.15,2013-02-12 17:40:00,
2013-02-12 11:45:00,59.9,59.9,29.85,East,84,2.0,11.0,100,0.00,,,0.06,Wunderground v.1.15,2013-02-12 17:45:00,
2013-02-12 11:50:00,60.0,60.0,29.85,ESE,102,2.0,2.0,100,0.00,,,0.06,Wunderground v.1.15,2013-02-12 17:50:00,
2013-02-12 11:55:00,60.1,60.1,29.85,ENE,63,1.0,11.0,100,0.00,,,0.06,Wunderground v.1.15,2013-02-12 17:55:00,
2013-02-12 12:05:00,60.2,60.2,29.85,East,84,1.0,11.0,100,0.00,,,0.06,Wunderground v.1.15,2013-02-12 18:05:00,
2013-02-12 12:10:00,60.4,60.4,29.84,ESE,108,1.0,11.0,100,0.00,,,0.06,Wunderground v.1.15,2013-02-12 18:10:00,
2013-02-12 12:15:00,60.5,60.5,29.84,ESE,110,2.0,11.0,100,0.00,,,0.06,Wunderground v.1.15,2013-02-12 18:15:00,
2013-02-12 12:20:00,60.6,60.6,29.83,ESE,105,3.0,11.0,100,0.00,,,0.06,Wunderground v.1.15,2013-02-12 18:20:00,
2013-02-12 12:25:00,60.7,60.7,29.83,ESE,111,4.0,11.0,100,0.00,,,0.06,Wunderground v.1.15,2013-02-12 18:25:00,
2013-02-12 12:30:00,60.9,60.9,29.82,SSE,148,4.0,4.0,100,0.00,,,0.06,Wunderground v.1.15,2013-02-12 18:30:00,
2013-02-12 12:40:00,61.4,61.4,29.81,SE,136,7.0,7.0,100,0.00,,,0.06,Wunderground v.1.15,2013-02-12 18:40:00,
2013-02-12 12:45:00,61.7,61.7,29.81,SE,125,6.0,11.0,100,0.00,,,0.06,Wunderground v.1.15,2013-02-12 18:45:00,
2013-02-12 12:50:00,62.1,62.1,29.80,SE,126,5.0,5.0,100,0.00,,,0.06,Wunderground v.1.15,2013-02-12 18:50:00,
2013-02-12 12:55:00,62.4,62.4,29.80,ESE,122,4.0,11.0,100,0.00,,,0.06,Wunderground v.1.15,2013-02-12 18:55:00,
2013-02-12 13:00:00,62.5,62.5,29.80,SE,124,4.0,11.0,100,0.00,,,0.06,Wunderground v.1.15,2013-02-12 19:00:00,
2013-02-12 13:10:00,63.1,63.1,29.79,ESE,108,5.0,11.0,100,0.00,,,0.06,Wunderground v.1.15,2013-02-12 19:10:00,
2013-02-12 13:15:00,63.3,63.3,29.78,SE,139,5.0,11.0,100,0.00,,,0.06,Wunderground v.1.15,2013-02-12 19:15:00,
2013-02-12 13:20:00,63.3,63.0,29.78,ESE,113,5.0,5.0,99,0.00,,,0.06,Wunderground v.1.15,2013-02-12 19:20:00,
2013-02-12 13:25:00,63.3,63.0,29.78,East,82,4.0,11.0,99,0.00,,,0.06,Wunderground v.1.15,2013-02-12 19:25:00,
2013-02-12 13:30:00,63.3,63.0,29.78,SSE,155,2.0,11.0,99,0.00,,,0.06,Wunderground v.1.15,2013-02-12 19:30:00,
2013-02-12 13:35:00,63.5,63.5,29.78,ESE,109,2.0,11.0,100,0.00,,,0.06,Wunderground v.1.15,2013-02-12 19:35:00,
2013-02-12 13:45:00,63.7,63.7,29.78,SE,143,1.0,11.0,100,0.00,,,0.06,Wunderground v.1.15,2013-02-12 19:45:00,
2013-02-12 13:50:00,63.8,63.8,29.78,ESE,120,1.0,11.0,100,0.00,,,0.06,Wunderground v.1.15,2013-02-12 19:50:00,
2013-02-12 13:55:00,64.2,64.2,29.77,SSE,163,2.0,11.0,100,0.00,,,0.06,Wunderground v.1.15,2013-02-12 19:55:00,
2013-02-12 14:00:00,64.9,64.9,29.77,SSE,151,3.0,3.0,100,0.00,,,0.06,Wunderground v.1.15,2013-02-12 20:00:00,
2013-02-12 14:05:00,65.3,65.3,29.76,SE,139,3.0,11.0,100,0.00,,,0.06,Wunderground v.1.15,2013-02-12 20:05:00,
2013-02-12 14:10:00,65.7,65.7,29.77,South,189,3.0,3.0,100,0.00,,,0.06,Wunderground v.1.15,2013-02-12 20:10:00,
2013-02-12 14:15:00,66.2,66.2,29.76,SSE,158,2.0,11.0,100,0.00,,,0.06,Wunderground v.1.15,2013-02-12 20:15:00,
2013-02-12 14:20:00,66.6,66.6,29.75,ESE,114,3.0,11.0,100,0.00,,,0.06,Wunderground v.1.15,2013-02-12 20:20:00,
2013-02-12 14:25:00,66.9,66.6,29.75,South,187,3.0,11.0,99,0.00,,,0.06,Wunderground v.1.15,2013-02-12 20:25:00,
2013-02-12 14:30:00,67.5,67.2,29.75,South,169,2.0,11.0,99,0.00,,,0.06,Wunderground v.1.15,2013-02-12 20:30:00,
2013-02-12 14:35:00,68.3,68.3,29.75,SSW,198,3.0,11.0,100,0.00,,,0.06,Wunderground v.1.15,2013-02-12 20:35:00,
2013-02-12 14:45:00,69.6,69.3,29.75,South,189,3.0,11.0,99,0.00,,,0.06,Wunderground v.1.15,2013-02-12 20:45:00,
2013-02-12 14:50:00,70.0,69.1,29.75,South,173,4.0,4.0,97,0.00,,,0.06,Wunderground v.1.15,2013-02-12 20:50:00,
2013-02-12 14:55:00,70.1,68.9,29.75,South,185,5.0,5.0,96,0.00,,,0.06,Wunderground v.1.15,2013-02-12 20:55:00,
2013-02-12 15:00:00,70.3,69.1,29.74,SSE,167,5.0,5.0,96,0.00,,,0.06,Wunderground v.1.15,2013-02-12 21:00:00,
2013-02-12 15:05:00,70.6,69.4,29.74,SSE,159,4.0,11.0,96,0.00,,,0.06,Wunderground v.1.15,2013-02-12 21:05:00,
2013-02-12 15:10:00,70.6,69.4,29.74,SSW,200,2.0,2.0,96,0.00,,,0.06,Wunderground v.1.15,2013-02-12 21:10:00,
2013-02-12 15:20:00,71.5,70.0,29.73,SW,226,3.0,11.0,95,0.00,,,0.06,Wunderground v.1.15,2013-02-12 21:20:00,
2013-02-12 15:25:00,71.9,70.1,29.73,SW,230,4.0,11.0,94,0.00,,,0.06,Wunderground v.1.15,2013-02-12 21:25:00,
2013-02-12 15:30:00,72.2,70.4,29.73,SSW,212,5.0,11.0,94,0.00,,,0.06,Wunderground v.1.15,2013-02-12 21:30:00,
2013-02-12 15:35:00,72.5,70.7,29.73,SW,231,6.0,11.0,94,0.00,,,0.06,Wunderground v.1.15,2013-02-12 21:35:00,
2013-02-12 15:40:00,72.6,70.8,29.74,WSW,240,5.0,11.0,94,0.00,,,0.06,Wunderground v.1.15,2013-02-12 21:40:00,
2013-02-12 15:50:00,73.1,71.0,29.73,SW,221,7.0,11.0,93,0.00,,,0.06,Wunderground v.1.15,2013-02-12 21:50:00,
2013-02-12 15:55:00,73.4,70.6,29.73,SW,233,9.0,11.0,91,0.00,,,0.06,Wunderground v.1.15,2013-02-12 21:55:00,
2013-02-12 16:00:00,73.6,70.8,29.73,SW,223,9.0,9.0,91,0.00,,,0.06,Wunderground v.1.15,2013-02-12 22:00:00,
2013-02-12 16:05:00,73.8,70.7,29.74,WSW,246,9.0,13.0,90,0.00,,,0.06,Wunderground v.1.15,2013-02-12 22:05:00,
2013-02-12 16:10:00,73.8,70.4,29.73,WSW,237,11.0,11.0,89,0.00,,,0.06,Wunderground v.1.15,2013-02-12 22:10:00,
2013-02-12 16:15:00,73.8,70.4,29.73,WSW,245,11.0,11.0,89,0.00,,,0.06,Wunderground v.1.15,2013-02-12 22:15:00,
2013-02-12 16:25:00,73.7,70.3,29.73,SW,222,12.0,16.0,89,0.00,,,0.06,Wunderground v.1.15,2013-02-12 22:25:00,
2013-02-12 16:30:00,73.6,69.8,29.74,WSW,241,12.0,13.0,88,0.00,,,0.07,Wunderground v.1.15,2013-02-12 22:30:00,
2013-02-12 16:35:00,73.5,70.1,29.74,WSW,244,11.0,13.0,89,0.00,,,0.07,Wunderground v.1.15,2013-02-12 22:35:00,
2013-02-12 16:40:00,73.3,69.9,29.73,SW,227,10.0,10.0,89,0.00,,,0.07,Wunderground v.1.15,2013-02-12 22:40:00,
2013-02-12 16:45:00,73.2,69.8,29.73,SW,235,10.0,11.0,89,0.00,,,0.07,Wunderground v.1.15,2013-02-12 22:45:00,
2013-02-12 16:55:00,73.1,69.7,29.74,SW,236,9.0,11.0,89,0.00,,,0.07,Wunderground v.1.15,2013-02-12 22:55:00,
2013-02-12 17:00:00,72.8,69.7,29.75,WNW,297,9.0,14.0,90,0.00,,,0.07,Wunderground v.1.15,2013-02-12 23:00:00,
2013-02-12 17:05:00,70.8,67.4,29.75,NNW,329,10.0,14.0,89,0.00,,,0.07,Wunderground v.1.15,2013-02-12 23:05:00,
2013-02-12 17:10:00,69.2,66.5,29.75,NW,316,9.0,9.0,91,0.00,,,0.07,Wunderground v.1.15,2013-02-12 23:10:00,
2013-02-12 17:15:00,68.2,65.8,29.75,NW,314,9.0,10.0,92,0.00,,,0.07,Wunderground v.1.15,2013-02-12 23:15:00,
2013-02-12 17:20:00,67.5,65.1,29.76,NW,310,8.0,11.0,92,0.00,,,0.07,Wunderground v.1.15,2013-02-12 23:20:00,
2013-02-12 17:25:00,66.9,64.5,29.76,NW,310,8.0,11.0,92,0.00,,,0.07,Wunderground v.1.15,2013-02-12 23:25:00,
2013-02-12 17:30:00,66.4,64.3,29.77,NW,304,8.0,11.0,93,0.00,,,0.07,Wunderground v.1.15,2013-02-12 23:30:00,
2013-02-12 17:35:00,65.9,64.1,29.77,NW,314,7.0,11.0,94,0.00,,,0.07,Wunderground v.1.15,2013-02-12 23:35:00,
2013-02-12 17:40:00,65.5,63.7,29.78,WNW,300,7.0,11.0,94,0.00,,,0.07,Wunderground v.1.15,2013-02-12 23:40:00,
2013-02-12 17:45:00,64.8,62.7,29.79,NNW,336,9.0,11.0,93,0.00,,,0.07,Wunderground v.1.15,2013-02-12 23:45:00,
2013-02-12 17:50:00,64.3,62.5,29.80,NNW,336,10.0,10.0,94,0.00,,,0.07,Wunderground v.1.15,2013-02-12 23:50:00,
2013-02-12 18:00:00,63.3,61.2,29.79,NNW,330,9.0,9.0,93,0.00,,,0.07,Wunderground v.1.15,2013-02-13 00:00:00,
2013-02-12 18:05:00,63.0,60.9,29.79,NW,319,7.0,11.0,93,0.00,,,0.07,Wunderground v.1.15,2013-02-13 00:05:00,
2013-02-12 18:10:00,62.8,60.7,29.80,NW,312,6.0,11.0,93,0.00,,,0.07,Wunderground v.1.15,2013-02-13 00:10:00,
2013-02-12 18:15:00,62.6,60.5,29.80,NW,326,6.0,11.0,93,0.00,,,0.07,Wunderground v.1.15,2013-02-13 00:15:00,
2013-02-12 18:20:00,62.2,60.2,29.79,NNW,339,6.0,11.0,93,0.00,,,0.07,Wunderground v.1.15,2013-02-13 00:20:00,
2013-02-12 18:25:00,61.8,59.8,29.80,NW,309,7.0,11.0,93,0.00,,,0.07,Wunderground v.1.15,2013-02-13 00:25:00,
2013-02-12 18:35:00,61.6,59.9,29.81,WNW,303,4.0,11.0,94,0.00,,,0.07,Wunderground v.1.15,2013-02-13 00:35:00,
2013-02-12 18:40:00,61.5,59.8,29.80,NW,316,3.0,11.0,94,0.00,,,0.07,Wunderground v.1.15,2013-02-13 00:40:00,
2013-02-12 18:45:00,61.2,59.2,29.80,NW,320,4.0,11.0,93,0.00,,,0.07,Wunderground v.1.15,2013-02-13 00:45:00,
2013-02-12 18:50:00,61.0,59.3,29.81,NW,311,4.0,11.0,94,0.00,,,0.07,Wunderground v.1.15,2013-02-13 00:50:00,
2013-02-12 18:55:00,60.8,59.1,29.80,NW,311,3.0,11.0,94,0.00,,,0.07,Wunderground v.1.15,2013-02-13 00:55:00,
2013-02-12 19:00:00,60.7,59.0,29.81,NW,306,3.0,11.0,94,0.00,,,0.07,Wunderground v.1.15,2013-02-13 01:00:00,
2013-02-12 19:05:00,60.6,59.2,29.81,NW,308,3.0,11.0,95,0.00,,,0.07,Wunderground v.1.15,2013-02-13 01:05:00,
2013-02-12 19:10:00,60.5,58.8,29.82,NNW,332,3.0,11.0,94,0.00,,,0.07,Wunderground v.1.15,2013-02-13 01:10:00,
2013-02-12 19:15:00,60.3,58.6,29.81,WNW,298,5.0,11.0,94,0.00,,,0.07,Wunderground v.1.15,2013-02-13 01:15:00,
2013-02-12 19:20:00,60.2,58.5,29.81,NW,306,5.0,5.0,94,0.00,,,0.07,Wunderground v.1.15,2013-02-13 01:20:00,
2013-02-12 19:30:00,59.8,57.8,29.82,NW,305,5.0,5.0,93,0.00,,,0.07,Wunderground v.1.15,2013-02-13 01:30:00,
2013-02-12 19:35:00,59.6,57.6,29.83,WNW,302,5.0,9.0,93,0.00,,,0.07,Wunderground v.1.15,2013-02-13 01:35:00,
2013-02-12 19:40:00,59.4,57.7,29.83,NW,311,6.0,6.0,94,0.00,,,0.07,Wunderground v.1.15,2013-02-13 01:40:00,
2013-02-12 19:45:00,59.3,57.6,29.84,NW,321,7.0,8.0,94,0.00,,,0.07,Wunderground v.1.15,2013-02-13 01:45:00,
2013-02-12 19:50:00,59.2,57.5,29.82,NW,311,6.0,11.0,94,0.00,,,0.07,Wunderground v.1.15,2013-02-13 01:50:00,
2013-02-12 19:55:00,59.1,57.1,29.83,NW,322,6.0,11.0,93,0.00,,,0.07,Wunderground v.1.15,2013-02-13 01:55:00,
2013-02-12 20:00:00,59.0,57.3,29.84,NW,320,6.0,6.0,94,0.00,,,0.07,Wunderground v.1.15,2013-02-13 02:00:00,
2013-02-12 20:10:00,58.9,56.9,29.84,NW,321,7.0,11.0,93,0.00,,,0.07,Wunderground v.1.15,2013-02-13 02:10:00,
2013-02-12 20:15:00,58.8,56.8,29.85,NNW,338,8.0,11.0,93,0.00,,,0.07,Wunderground v.1.15,2013-02-13 02:15:00,
2013-02-12 20:20:00,58.7,56.4,29.85,NNW,331,8.0,11.0,92,0.00,,,0.07,Wunderground v.1.15,2013-02-13 02:20:00,
2013-02-12 20:25:00,58.7,56.4,29.85,NW,323,8.0,11.0,92,0.00,,,0.07,Wunderground v.1.15,2013-02-13 02:25:00,
2013-02-12 20:30:00,58.7,56.4,29.84,NNW,332,7.0,11.0,92,0.00,,,0.07,Wunderground v.1.15,2013-02-13 02:30:00,
2013-02-12 20:40:00,58.4,56.1,29.87,NW,306,7.0,12.0,92,0.00,,,0.07,Wunderground v.1.15,2013-02-13 02:40:00,
2013-02-12 20:45:00,58.2,55.6,29.86,WNW,295,7.0,12.0,91,0.00,,,0.07,Wunderground v.1.15,2013-02-13 02:45:00,
2013-02-12 20:50:00,58.0,55.7,29.86,NNW,332,7.0,7.0,92,0.00,,,0.07,Wunderground v.1.15,2013-02-13 02:50:00,
2013-02-12 20:55:00,57.9,55.6,29.87,NNW,328,7.0,8.0,92,0.00,,,0.07,Wunderground v.1.15,2013-02-13 02:55:00,
2013-02-12 21:00:00,57.6,55.0,29.87,NW,313,7.0,11.0,91,0.00,,,0.07,Wunderground v.1.15,2013-02-13 03:00:00,
2013-02-12 21:05:00,57.5,55.2,29.87,North,352,7.0,11.0,92,0.00,,,0.07,Wunderground v.1.15,2013-02-13 03:05:00,
2013-02-12 21:15:00,57.2,54.9,29.87,NNW,340,7.0,11.0,92,0.00,,,0.07,Wunderground v.1.15,2013-02-13 03:15:00,
2013-02-12 21:20:00,57.1,54.8,29.87,NW,326,6.0,11.0,92,0.00,,,0.07,Wunderground v.1.15,2013-02-13 03:20:00,
2013-02-12 21:25:00,57.1,54.8,29.88,NNW,328,5.0,11.0,92,0.00,,,0.07,Wunderground v.1.15,2013-02-13 03:25:00,
2013-02-12 21:30:00,57.1,54.8,29.89,NW,314,4.0,11.0,92,0.00,,,0.07,Wunderground v.1.15,2013-02-13 03:30:00,
2013-02-12 21:35:00,57.0,54.4,29.89,WNW,294,6.0,11.0,91,0.00,,,0.07,Wunderground v.1.15,2013-02-13 03:35:00,
2013-02-12 21:45:00,56.8,54.2,29.88,NNW,341,6.0,11.0,91,0.00,,,0.07,Wunderground v.1.15,2013-02-13 03:45:00,
2013-02-12 21:50:00,56.6,53.7,29.89,NNW,338,7.0,11.0,90,0.00,,,0.07,Wunderground v.1.15,2013-02-13 03:50:00,
2013-02-12 21:55:00,56.5,53.6,29.89,NW,319,9.0,11.0,90,0.00,,,0.07,Wunderground v.1.15,2013-02-13 03:55:00,
2013-02-12 22:00:00,56.3,53.4,29.89,NW,326,8.0,8.0,90,0.00,,,0.07,Wunderground v.1.15,2013-02-13 04:00:00,
2013-02-12 22:05:00,56.2,53.6,29.90,NNW,342,7.0,10.0,91,0.00,,,0.07,Wunderground v.1.15,2013-02-13 04:05:00,
2013-02-12 22:10:00,56.2,53.6,29.89,North,352,8.0,11.0,91,0.00,,,0.07,Wunderground v.1.15,2013-02-13 04:10:00,
2013-02-12 22:20:00,56.1,53.2,29.91,NW,319,7.0,11.0,90,0.00,,,0.07,Wunderground v.1.15,2013-02-13 04:20:00,
2013-02-12 22:25:00,55.9,53.0,29.90,NW,312,6.0,11.0,90,0.00,,,0.07,Wunderground v.1.15,2013-02-13 04:25:00,
2013-02-12 22:30:00,55.8,53.2,29.90,NW,315,4.0,4.0,91,0.00,,,0.07,Wunderground v.1.15,2013-02-13 04:30:00,
2013-02-12 22:35:00,55.6,53.0,29.90,NW,311,2.0,11.0,91,0.00,,,0.07,Wunderground v.1.15,2013-02-13 04:35:00,
2013-02-12 22:40:00,55.4,52.8,29.90,NW,316,2.0,11.0,91,0.00,,,0.07,Wunderground v.1.15,2013-02-13 04:40:00,
2013-02-12 22:45:00,55.4,53.1,29.90,NNW,339,2.0,11.0,92,0.00,,,0.07,Wunderground v.1.15,2013-02-13 04:45:00,
2013-02-12 22:50:00,55.4,53.1,29.90,NW,316,2.0,11.0,92,0.00,,,0.07,Wunderground v.1.15,2013-02-13 04:50:00,
2013-02-12 22:55:00,55.4,53.1,29.90,NW,316,3.0,11.0,92,0.00,,,0.07,Wunderground v.1.15,2013-02-13 04:55:00,
2013-02-12 23:00:00,55.3,53.0,29.90,NW,317,2.0,2.0,92,0.00,,,0.07,Wunderground v.1.15,2013-02-13 05:00:00,
2013-02-12 23:05:00,55.2,53.2,29.89,NNW,329,2.0,11.0,93,0.00,,,0.07,Wunderground v.1.15,2013-02-13 05:05:00,
2013-02-12 23:10:00,55.2,53.2,29.90,NNW,330,2.0,11.0,93,0.00,,,0.07,Wunderground v.1.15,2013-02-13 05:10:00,
2013-02-12 23:15:00,55.2,53.2,29.89,NNW,328,3.0,11.0,93,0.00,,,0.07,Wunderground v.1.15,2013-02-13 05:15:00,
2013-02-12 23:20:00,55.1,52.8,29.89,North,3,4.0,11.0,92,0.00,,,0.07,Wunderground v.1.15,2013-02-13 05:20:00,
2013-02-12 23:25:00,55.0,53.0,29.90,NW,319,3.0,11.0,93,0.00,,,0.07,Wunderground v.1.15,2013-02-13 05:25:00,
2013-02-12 23:30:00,54.9,52.6,29.90,NW,323,3.0,11.0,92,0.00,,,0.07,Wunderground v.1.15,2013-02-13 05:30:00,
2013-02-12 23:35:00,54.9,52.6,29.90,NNW,339,4.0,11.0,92,0.00,,,0.07,Wunderground v.1.15,2013-02-13 05:35:00,
2013-02-12 23:40:00,54.8,52.5,29.90,NW,316,3.0,3.0,92,0.00,,,0.07,Wunderground v.1.15,2013-02-13 05:40:00,
2013-02-12 23:45:00,54.8,52.5,29.90,NW,322,3.0,11.0,92,0.00,,,0.07,Wunderground v.1.15,2013-02-13 05:45:00,
2013-02-12 23:55:00,54.6,52.3,29.92,NW,314,2.0,11.0,92,0.00,,,0.07,Wunderground v.1.15,2013-02-13 05:55:00,